Regional Weather Roundup
Issued by NWS

Home | Current Version | Previous Version | Text Only | Print | Product List | Glossary Off
Versions: 1 2 3 4 5 6 7 8 9 10 11 12 13 14 15 16 17 18 19 20 21 22 23 24 25 26 27 28 29 30 31 32 33 34 35 36 37 38 39 40 41 42 43 44 45 46 47 48 49 50

000
ASUS43 KMPX 301610
RWRMN
WEATHER ROUNDUP FOR MINNESOTA
NATIONAL WEATHER SERVICE TWIN CITIES/CHANHASSEN MN
1100 AM CDT WED JUL 30 2014


NOTE: "FAIR" INDICATES FEW OR NO CLOUDS BELOW 12,000 FEET WITH NO
SIGNIFICANT WEATHER AND/OR OBSTRUCTIONS TO VISIBILITY. N/A MEANS
CURRENT SKY AND/OR WEATHER CONDITIONS ARE NOT AVAILABLE.

MNZ060>063-068>070-301700-
   Twin Cities Metro

CITY           SKY/WX    TMP DP  RH WIND       PRES   REMARKS
TWIN CITIES    SUNNY     75  58  55 W6        30.10R
ST PAUL        SUNNY     73  59  61 N6        30.09S
CRYSTAL        SUNNY     75  59  57 N6        30.08S
BLAINE         SUNNY     73  61  64 CALM      30.09S
LAKEVILLE      SUNNY     72  59  64 CALM      30.10R
EDEN PRAIRIE   SUNNY     75  61  61 W6        30.09S
SOUTH ST PAUL  SUNNY     73  58  59 CALM      30.09S
LAKE ELMO      FAIR      72  61  68 SW5       30.10S
$$
MNZ001>005-007-008-013>017-022>024-027-028-301700-
   Northwest Minnesota

CITY           SKY/WX    TMP DP  RH WIND       PRES   REMARKS
BEMIDJI        SUNNY     72  58  60 NW10      30.11S
HALLOCK        SUNNY     73  57  56 NW5       30.10F
ROSEAU         SUNNY     73  61  64 NW8       30.09S
WARROAD        SUNNY     73  61  64 NW10G17   30.09S
THIEF RVR FALL SUNNY     72  55  56 NW7       30.12S
CROOKSTON      SUNNY     72  59  64 NW7       30.13S
FOSSTON        SUNNY     72  57  60 NW10      30.13S
DETROIT LAKES  SUNNY     72  55  56 NW8       30.15S
MOORHEAD       SUNNY     72  61  68 N5        30.14S
PARK RAPIDS    SUNNY     73  55  53 NW12      30.11F
$$
MNZ006-009>011-018-025>026-301700-
   North Central Minnesota

CITY           SKY/WX    TMP DP  RH WIND       PRES   REMARKS
BAUDETTE       SUNNY     73  57  57 NW12      30.08S
FLAG ISLAND    SUNNY     72  59  64 NW9       30.05S
INTL FALLS     SUNNY     73  60  63 NW8       30.04S
WASKISH        SUNNY     75  59  57 NW8       30.08S
BIG FORK       SUNNY     72  57  60 NW5       30.07S
LONGVILLE      SUNNY     70  59  68 NW9       30.10R
GRAND RAPIDS   SUNNY     70  57  64 W13       30.08R
CRANE LAKE     SUNNY     68  63  83 W3        30.03F
ORR            MOSUNNY   70  57  64 W9        30.02F
COOK           MOSUNNY   66  59  77 W7        30.05S
$$
MNZ012-019>021-037-301700-
   Northeast Minnesota

CITY           SKY/WX    TMP DP  RH WIND       PRES   REMARKS
DULUTH         SUNNY     69  58  67 W7        30.06S
ELY            SUNNY     66  59  77 W7        30.03F
HIBBING        SUNNY     72  59  63 VRB6      30.05F
EVELETH        SUNNY     68  57  68 W8        30.06S
DULUTH HARBOR  SUNNY     68  61  77 SW7       30.05F
TWO HARBORS    SUNNY     68  55  64 W6        30.02F
SILVER BAY     SUNNY     70  61  73 SW5       30.02S
GRAND MARAIS     N/A     54  49  83 W5        30.00F
G MARAIS ARPRT SUNNY     66  52  59 W5        30.03F
$$
MNZ029>031-032-039>041-046>048-054>057-064-301700-
   West Central Minnesota

CITY           SKY/WX    TMP DP  RH WIND       PRES   REMARKS
FERGUS FALLS   SUNNY     72  54  53 N8        30.14S
WHEATON        SUNNY     70  57  64 N5        30.16S
MORRIS         SUNNY     73  59  60 NW8       30.14S
ALEXANDRIA     SUNNY     72  56  57 NW9       30.15S
ELBOW LAKE     FAIR      70  58  66 NW8       30.15R
WADENA         SUNNY     72  57  60 NW7       30.12S
GLENWOOD       SUNNY     73  57  56 NW8       30.15R
APPLETON       SUNNY     75  55  50 NW9       30.14S
BENSON         SUNNY     73  57  56 N6        30.14S
ORTONVILLE     SUNNY     73  55  53 CALM      30.15S
MADISON        SUNNY     75  59  57 N3        30.15S
WILLMAR        FAIR      73  57  56 NW7       30.15R
$$
MNZ033>034-036-042>043-049>051-058-059-301700-
   Central Minnesota

CITY           SKY/WX    TMP DP  RH WIND       PRES   REMARKS
ST CLOUD       SUNNY     76  57  51 NW6       30.10S
SAUK CENTRE    FAIR      72  55  56 N10       30.13S
PAYNESVILLE    SUNNY     72  53  51 W7        30.13S
AITKIN         SUNNY     75  61  60 W3        30.08R
PINE RIVER     SUNNY     72  59  64 NW7       30.13S
BRAINERD       SUNNY     73  56  54 NW9       30.10S
STAPLES        SUNNY     73  55  53 N6        30.12S
LONG PRAIRIE   FAIR      70  55  60 W7        30.14R
LITTLE FALLS   SUNNY     73  52  46 NW8       30.11S
LITCHFIELD     SUNNY     73  61  64 NW7       30.13R
BUFFALO        SUNNY     73  58  59 NW5       30.12R
MAPLE LAKE     SUNNY     73  61  65 CALM      30.12S
$$
MNZ037-044-045-052-053-301700-
   East Central Minnesota

CITY           SKY/WX    TMP DP  RH WIND       PRES   REMARKS
PRINCETON      SUNNY     75  63  64 SW6       30.10S
MORA           SUNNY     70  61  73 W5        30.11R
CAMBRIDGE      SUNNY     73  57  56 W5        30.08R
RUSH CITY      SUNNY     69  58  66 CALM      30.09S
MOOSE LAKE     SUNNY     68  59  73 CALM      30.06S
HINCKLEY       FAIR      68  59  73 SW5       30.09R
CLOQUET        SUNNY     70  55  60 W7        30.06F
MCGREGOR       SUNNY     70  61  73 NW7       30.09R
$$
MNZ071>073-080-081-089-090-097-098-301700-
   Southwest Minnesota

CITY           SKY/WX    TMP DP  RH WIND       PRES   REMARKS
MONTEVIDEO     SUNNY     75  68  78 N5        30.15S
GRANITE FALLS  SUNNY     72  59  64 NW6       30.16S
CANBY          SUNNY     73  55  51 N6        30.16F
MARSHALL       SUNNY     72  57  60 N6        30.15S
REDWOOD FALLS  SUNNY     74  58  57 NW6       30.14S
OLIVIA         SUNNY     73  61  64 NW7       30.13S
PIPESTONE      SUNNY     72  55  56 N3        30.17S
WINDOM         SUNNY     72  57  60 W8        30.15S
WORTHINGTON    SUNNY     70  55  60 N7        30.18S
JACKSON        SUNNY     72  55  56 VRB6      30.16S
TRACY          SUNNY     72  59  64 NW3       30.16S
SLAYTON        SUNNY     72  55  54 CALM      30.17S
$$
MNZ065>067-074>077-082>085-091>093-301700-
   South Central Minnesota

CITY           SKY/WX    TMP DP  RH WIND       PRES   REMARKS
MANKATO        SUNNY     72  57  60 NW7       30.12S
NEW ULM        SUNNY     73  61  64 NW9       30.13S
ST JAMES       SUNNY     73  57  56 W7        30.14S
FAIRMONT       SUNNY     73  55  53 NW7       30.14S
GLENCOE        SUNNY     74  56  52 W6        30.11S
FARIBAULT      SUNNY     75  55  50 SW3       30.11S
OWATONNA       SUNNY     72  57  60 NW5       30.11S
WASECA         SUNNY     72  55  56 W5        30.13S
ALBERT LEA     MOSUNNY   73  59  60 NW5       30.12S
$$
MNZ078>079-086>088-094>096-301700-
   Southeast Minnesota

CITY           SKY/WX    TMP DP  RH WIND       PRES   REMARKS
ROCHESTER      SUNNY     71  58  63 NW5       30.13R
RED WING       SUNNY     72  61  68 CALM      30.08S
STANTON        SUNNY     72  57  58 CALM      30.09S
DODGE CENTER   SUNNY     72  57  60 NW5       30.11S
WINONA         SUNNY     70  55  60 N3        30.09S
AUSTIN         SUNNY     72  59  64 CALM      30.11S
PRESTON        SUNNY     68  62  81 NW3       30.12R
$$
ABBREVIATIONS USED IN REMARKS
   TC - TEMPERATURES IN CELSIUS
  WCI - WIND CHILL INDEX
   HX - HEAT INDEX
  VSB - VISIBILITY
$$


USA.gov is the U.S. government's official web portal to all federal, state and local government web resources and services.